Powrót do katalogu

STARLINK-33880

AktywnyŁącznośćVLEO
NORAD 63686·PAYLOAD·🇺🇸 United States

Wystrzelony Apr 28, 2025 z Cape Canaveral Space Force Station

Loading…

Następne Przeloty (najbliższe 24 godziny)

TLE

ŚwieżeSource: CelesTrak SupGP

Epoka: Sep 14, 2026, 20:57 UTC

1 63686C 25085Y   26257.87340278  .00059123  00000+0  21417-2 0  2573
2 63686  43.0011  42.7051 0001526 273.9614 344.3640 15.27544980    15

Śledź STARLINK-33880 w czasie rzeczywistym z AllMySat

Download on the App Store